Location: Unspecified
(40.7945°N, 111.1337°W)
Time: 15:28:45
(UTC-06:00)

S-56A Canister/Altair - All Passes

Search period start: 24 June 2019 00:00
Search period end: 04 July 2019 00:00
Orbit: 633 x 2499 km, 38.9° (Epoch: 23 June)

Date Brightness Start Highest point End Pass type
(mag) Time Alt. Az. Time Alt. Az. Time Alt. Az.
24 Jun - 14:16:23 10° SSW 14:26:11 27° SSE 14:33:40 10° E daylight
24 Jun - 16:20:01 10° SW 16:30:57 55° SSE 16:38:11 10° E daylight
24 Jun - 18:26:22 10° W 18:35:29 77° S 18:41:25 10° E daylight
24 Jun - 20:32:39 10° W 20:39:22 55° SSW 20:44:12 10° ESE daylight
24 Jun - 22:39:15 10° WSW 22:42:04 15° SW 22:44:39 10° S visible
25 Jun - 13:43:21 10° SSW 13:53:06 25° SE 14:00:47 10° E daylight
25 Jun - 15:46:29 10° SW 15:57:59 53° SSE 16:05:42 10° E daylight
25 Jun - 17:52:49 10° W 18:02:41 77° S 18:09:03 10° E daylight
25 Jun - 19:59:22 10° W 20:06:47 61° SSW 20:11:55 10° ESE daylight
25 Jun - 22:05:47 10° W 22:09:39 19° SW 22:12:58 10° S visible
26 Jun - 13:10:26 10° S 13:19:59 23° SE 13:27:46 10° E daylight
26 Jun - 15:12:57 10° SW 15:24:57 50° SSE 15:33:09 10° E daylight
26 Jun - 17:19:11 10° WSW 17:29:49 76° S 17:36:39 10° E daylight
26 Jun - 19:25:59 10° W 19:34:09 67° SSW 19:39:38 10° ESE daylight
26 Jun - 21:32:25 10° W 21:37:14 24° SW 21:41:05 10° SSE visible
27 Jun - 12:37:41 10° S 12:46:52 21° SE 12:54:35 10° E daylight
27 Jun - 14:39:27 10° SW 14:51:51 48° SSE 15:00:33 10° E daylight
27 Jun - 16:45:31 10° WSW 16:56:53 75° S 17:04:13 10° E daylight
27 Jun - 18:52:30 10° W 19:01:27 72° SSW 19:07:19 10° ESE daylight
27 Jun - 20:59:02 10° W 21:04:46 29° SW 21:09:08 10° SSE daylight
28 Jun - 12:05:05 10° S 12:13:42 19° SE 12:21:12 10° E daylight
28 Jun - 14:06:00 10° SW 14:18:41 45° SSE 14:27:53 10° E daylight
28 Jun - 16:11:48 10° WSW 16:23:53 73° S 16:31:46 10° E daylight
28 Jun - 18:18:56 10° W 18:28:41 75° S 18:34:59 10° ESE daylight
28 Jun - 20:25:39 10° W 20:32:17 35° SSW 20:37:04 10° SSE daylight
29 Jun - 11:32:45 10° SSE 11:40:33 17° SE 11:47:33 10° ESE daylight
29 Jun - 13:32:37 10° SW 13:45:29 43° SSE 13:55:07 10° E daylight
29 Jun - 15:38:04 10° WSW 15:50:49 71° SSE 15:59:16 10° E daylight
29 Jun - 17:45:17 10° W 17:55:51 78° S 18:02:36 10° ESE daylight
29 Jun - 19:52:11 10° W 19:59:44 42° SSW 20:04:58 10° SE daylight
30 Jun - 11:00:47 10° SSE 11:07:23 14° SE 11:13:31 10° ESE daylight
30 Jun - 12:59:19 10° SSW 13:12:13 40° SSE 13:22:17 10° E daylight
30 Jun - 15:04:20 10° WSW 15:17:40 69° SSE 15:26:42 10° E daylight
30 Jun - 17:11:34 10° W 17:22:55 80° S 17:30:12 10° E daylight
30 Jun - 19:18:41 10° W 19:27:07 49° SSW 19:32:48 10° SE daylight
30 Jun - 21:27:26 10° WSW 21:29:31 12° SW 21:31:26 10° SSW visible
01 Jul - 10:29:29 10° SSE 10:34:15 12° SE 10:38:48 10° ESE daylight
01 Jul - 12:26:06 10° SSW 12:38:57 37° SE 12:49:20 10° E daylight
01 Jul - 14:30:39 10° WSW 14:44:26 67° SSE 14:54:05 10° E daylight
01 Jul - 16:37:48 10° W 16:49:55 81° S 16:57:45 10° E daylight
01 Jul - 18:45:05 10° W 18:54:26 55° SSW 19:00:35 10° SE daylight
01 Jul - 20:53:03 10° W 20:57:05 16° SW 21:00:28 10° S daylight
02 Jul - 11:53:02 10° SSW 12:05:38 34° SE 12:16:16 10° E daylight
02 Jul - 13:57:00 10° SW 14:11:09 64° SSE 14:21:24 10° E daylight
02 Jul - 16:04:00 10° W 16:16:50 81° S 16:25:15 10° E daylight
02 Jul - 18:11:27 10° W 18:21:39 61° SSW 18:28:18 10° ESE daylight
02 Jul - 20:19:07 10° W 20:24:38 21° SW 20:28:57 10° S daylight
03 Jul - 11:20:04 10° SSW 11:32:20 32° SE 11:43:04 10° E daylight
03 Jul - 13:23:25 10° SW 13:37:49 61° SSE 13:48:38 10° E daylight
03 Jul - 15:30:11 10° W 15:43:39 81° S 15:52:42 10° E daylight
03 Jul - 17:37:44 10° W 17:48:49 67° SSW 17:55:58 10° ESE daylight
03 Jul - 19:45:18 10° W 19:52:07 26° SW 19:57:11 10° SSE daylight
